Location: Lalanga
(4.5882°N, 32.9072°E)
Time: 06:51:50
(UTC+00:00)

YAOGAN 6 - Pass Details

Date: 24 January 2020
Orbit: 465 x 506 km, 97.0° (Epoch: 18 February)

Event Time Altitude Azimuth Distance (km) Brightness Sun altitude
Rises 16:30:50 0° 181° (S) 2,599 6.5 -8.7°
Reaches altitude 10° 16:32:59 10° 189° (S) 1,715 5.7 -9.2°
Maximum altitude 16:36:29 40° 259° (W) 749 4.2 -10.0°
Drops below altitude 10° 16:39:58 10° 330° (NNW) 1,707 5.5 -10.8°
Sets 16:42:07 0° 338° (NNW) 2,586 6.3 -11.3°
